Location: Namasale
(1.5000°N, 32.6167°E)
Time: 22:53:04
(UTC+00:00)

Vanguard 3 - Pass Details

Date: 05 December 2021
Orbit: 508 x 3260 km, 33.3° (Epoch: 27 January)

Event Time Altitude Azimuth Distance (km) Brightness Sun altitude
Exits shadow 01:08:32 32° 344° (NNW) 4,580 10.5 -35.3°
Drops below altitude 10° 01:22:45 10° 32° (NNE) 5,845 11.5 -32.1°
Sets 01:27:48 0° 42° (NE) 6,580 12.0 -31.0°
